| time (UTC) | temp F | wind direction | speed MPH | gust MPH | rain 1hr in | rain 24hr in | rain mn in | humidity % | barometer mb |
| 20260508004230 | 50 | 328 | 3.0 | 3.0 | 0.00 | 0.01 | 0.01 | 44 | 1005.9 |
| 20260508003727 | 51 | 301 | 3.0 | 5.0 | 0.00 | 0.01 | 0.01 | 45 | 1005.8 |
| 20260508003224 | 51 | 324 | 3.0 | 3.0 | 0.00 | 0.01 | 0.01 | 44 | 1005.8 |
| 20260508002721 | 51 | 338 | 2.0 | 3.0 | 0.00 | 0.01 | 0.01 | 44 | 1005.6 |
| 20260508002218 | 51 | 339 | 1.0 | 2.0 | 0.00 | 0.01 | 0.01 | 43 | 1005.4 |
| 20260508001714 | 52 | 343 | 3.0 | 3.0 | 0.00 | 0.01 | 0.01 | 41 | 1005.5 |
| 20260508001209 | 52 | 348 | 2.0 | 2.0 | 0.00 | 0.01 | 0.01 | 41 | 1005.3 |
| 20260508000706 | 53 | 335 | 2.0 | 7.0 | 0.00 | 0.01 | 0.01 | 40 | 1005.2 |
| 20260508000204 | 53 | 310 | 3.0 | 5.0 | 0.00 | 0.01 | 0.01 | 38 | 1005.1 |
| 20260507235659 | 53 | 307 | 3.0 | 7.0 | 0.00 | 0.01 | 0.01 | 38 | 1005.3 |
| 20260507235157 | 53 | 318 | 4.0 | 5.0 | 0.00 | 0.01 | 0.01 | 38 | 1005.2 |
| 20260507234654 | 54 | 347 | 2.0 | 5.0 | 0.00 | 0.01 | 0.01 | 37 | 1005.1 |
| 20260507234150 | 54 | 333 | 4.0 | 5.0 | 0.00 | 0.01 | 0.01 | 35 | 1005.1 |
| 20260507233647 | 55 | 282 | 4.0 | 5.0 | 0.00 | 0.01 | 0.01 | 35 | 1004.9 |
| 20260507233145 | 55 | 336 | 4.0 | 10.0 | 0.00 | 0.01 | 0.01 | 33 | 1004.9 |
| 20260507232642 | 55 | 287 | 5.0 | 9.0 | 0.00 | 0.01 | 0.01 | 33 | 1004.9 |
| 20260507232139 | 55 | 325 | 3.0 | 7.0 | 0.00 | 0.01 | 0.01 | 34 | 1004.9 |
| 20260507231635 | 56 | 285 | 7.0 | 9.0 | 0.00 | 0.01 | 0.01 | 32 | 1004.9 |
| 20260507231133 | 56 | 306 | 3.0 | 9.0 | 0.00 | 0.01 | 0.01 | 32 | 1004.7 |
| 20260507230629 | 57 | 281 | 9.0 | 14.0 | 0.00 | 0.01 | 0.01 | 31 | 1004.4 |
| 20260507230127 | 56 | 323 | 10.0 | 14.0 | 0.00 | 0.01 | 0.01 | 31 | 1004.3 |
| 20260507225626 | 57 | 308 | 9.0 | 12.0 | 0.00 | 0.01 | 0.01 | 30 | 1004.5 |
| 20260507225123 | 57 | 310 | 8.0 | 14.0 | 0.00 | 0.01 | 0.01 | 30 | 1004.4 |
| 20260507224618 | 57 | 291 | 7.0 | 10.0 | 0.00 | 0.01 | 0.01 | 30 | 1004.2 |
| 20260507224115 | 57 | 304 | 7.0 | 10.0 | 0.00 | 0.01 | 0.01 | 30 | 1004.1 |
| 20260507223611 | 57 | 307 | 4.0 | 9.0 | 0.00 | 0.01 | 0.01 | 32 | 1004.1 |
| 20260507223108 | 57 | 320 | 7.0 | 9.0 | 0.00 | 0.01 | 0.01 | 32 | 1003.9 |
| 20260507222606 | 57 | 275 | 11.0 | 14.0 | 0.00 | 0.01 | 0.01 | 32 | 1003.9 |
| 20260507222102 | 57 | 281 | 4.0 | 10.0 | 0.00 | 0.01 | 0.01 | 32 | 1003.9 |
| 20260507221558 | 57 | 319 | 4.0 | 7.0 | 0.00 | 0.01 | 0.01 | 33 | 1003.9 |
| 20260507221055 | 57 | 307 | 3.0 | 5.0 | 0.00 | 0.01 | 0.01 | 36 | 1003.9 |
| 20260507220552 | 57 | 316 | 5.0 | 7.0 | 0.00 | 0.01 | 0.01 | 35 | 1003.8 |
| 20260507220049 | 57 | 275 | 5.0 | 14.0 | 0.00 | 0.01 | 0.01 | 34 | 1003.9 |
| 20260507215546 | 57 | 311 | 7.0 | 10.0 | 0.00 | 0.01 | 0.01 | 34 | 1003.8 |
| 20260507215044 | 57 | 311 | 4.0 | 10.0 | 0.00 | 0.01 | 0.01 | 33 | 1003.8 |
| 20260507214541 | 59 | 312 | 5.0 | 7.0 | 0.00 | 0.01 | 0.01 | 33 | 1004.0 |
| 20260507214036 | 58 | 277 | 7.0 | 9.0 | 0.00 | 0.01 | 0.01 | 32 | 1003.8 |
| 20260507213533 | 58 | 338 | 6.0 | 7.0 | 0.00 | 0.01 | 0.01 | 32 | 1003.8 |
| 20260507213030 | 58 | 297 | 6.0 | 12.0 | 0.00 | 0.01 | 0.01 | 32 | 1003.8 |
| 20260507212526 | 59 | 282 | 5.0 | 12.0 | 0.00 | 0.01 | 0.01 | 33 | 1003.6 |
| 20260507212023 | 59 | 272 | 6.0 | 7.0 | 0.00 | 0.01 | 0.01 | 33 | 1003.8 |
| 20260507211520 | 59 | 278 | 5.0 | 12.0 | 0.00 | 0.01 | 0.01 | 31 | 1003.8 |
| 20260507211016 | 59 | 259 | 5.0 | 9.0 | 0.00 | 0.01 | 0.01 | 31 | 1003.8 |
| 20260507210513 | 58 | 269 | 6.0 | 7.0 | 0.00 | 0.01 | 0.01 | 33 | 1003.6 |
| 20260507210010 | 57 | 329 | 5.0 | 12.0 | 0.00 | 0.01 | 0.01 | 32 | 1003.8 |
| 20260507205507 | 58 | 314 | 5.0 | 9.0 | 0.00 | 0.01 | 0.01 | 33 | 1003.6 |
| 20260507205003 | 58 | 297 | 5.0 | 9.0 | 0.00 | 0.01 | 0.01 | 32 | 1003.6 |
| 20260507204459 | 58 | 255 | 7.0 | 12.0 | 0.00 | 0.01 | 0.01 | 32 | 1003.6 |
| 20260507203957 | 59 | 270 | 8.0 | 9.0 | 0.00 | 0.01 | 0.01 | 36 | 1003.4 |
| 20260507203455 | 58 | 269 | 5.0 | 7.0 | 0.00 | 0.01 | 0.01 | 34 | 1003.5 |
| 20260507202951 | 60 | 237 | 9.0 | 12.0 | 0.00 | 0.01 | 0.01 | 32 | 1003.6 |
| 20260507202447 | 59 | 288 | 6.0 | 9.0 | 0.00 | 0.01 | 0.01 | 32 | 1003.7 |
| 20260507201943 | 59 | 275 | 11.0 | 14.0 | 0.00 | 0.01 | 0.01 | 32 | 1003.5 |
| 20260507201438 | 59 | 281 | 4.0 | 9.0 | 0.00 | 0.01 | 0.01 | 31 | 1003.7 |
| 20260507200936 | 59 | 277 | 7.0 | 9.0 | 0.00 | 0.01 | 0.01 | 34 | 1003.4 |
| 20260507200431 | 60 | 271 | 7.0 | 12.0 | 0.00 | 0.01 | 0.01 | 31 | 1003.6 |
| 20260507195927 | 60 | 269 | 6.0 | 10.0 | 0.00 | 0.01 | 0.01 | 34 | 1003.6 |
| 20260507195425 | 60 | 231 | 9.0 | 14.0 | 0.00 | 0.01 | 0.01 | 31 | 1003.4 |
| 20260507194922 | 60 | 276 | 6.0 | 7.0 | 0.00 | 0.01 | 0.01 | 34 | 1003.5 |
| 20260507194418 | 60 | 249 | 8.0 | 9.0 | 0.00 | 0.01 | 0.01 | 35 | 1003.6 |
| 20260507193915 | 58 | 319 | 3.0 | 9.0 | 0.00 | 0.01 | 0.01 | 34 | 1003.5 |
| 20260507193412 | 59 | 286 | 7.0 | 14.0 | 0.00 | 0.01 | 0.01 | 33 | 1003.7 |
| 20260507192908 | 59 | 293 | 8.0 | 10.0 | 0.00 | 0.01 | 0.01 | 33 | 1003.9 |
| 20260507192404 | 59 | 343 | 4.0 | 10.0 | 0.00 | 0.01 | 0.01 | 33 | 1003.8 |
| 20260507191901 | 59 | 312 | 7.0 | 9.0 | 0.00 | 0.01 | 0.01 | 33 | 1003.9 |
| 20260507191358 | 59 | 343 | 5.0 | 7.0 | 0.00 | 0.01 | 0.01 | 32 | 1003.9 |
| 20260507190854 | 59 | 331 | 9.0 | 10.0 | 0.00 | 0.01 | 0.01 | 33 | 1004.1 |
| 20260507190352 | 58 | 296 | 6.0 | 9.0 | 0.00 | 0.01 | 0.01 | 33 | 1004.1 |
| 20260507185851 | 58 | 296 | 8.0 | 17.0 | 0.00 | 0.01 | 0.01 | 33 | 1004.1 |
| 20260507185348 | 59 | 311 | 7.0 | 12.0 | 0.00 | 0.01 | 0.01 | 33 | 1003.9 |
| 20260507184845 | 60 | 266 | 9.0 | 10.0 | 0.00 | 0.01 | 0.01 | 33 | 1003.9 |
| 20260507184343 | 59 | 267 | 9.0 | 12.0 | 0.00 | 0.01 | 0.01 | 36 | 1004.0 |
| 20260507183839 | 59 | 310 | 8.0 | 15.0 | 0.00 | 0.01 | 0.01 | 34 | 1004.0 |
| 20260507183336 | 59 | 267 | 13.0 | 15.0 | 0.00 | 0.01 | 0.01 | 33 | 1003.9 |
| 20260507182834 | 59 | 271 | 8.0 | 17.0 | 0.00 | 0.01 | 0.01 | 33 | 1003.9 |
| 20260507182329 | 59 | 292 | 9.0 | 12.0 | 0.00 | 0.01 | 0.01 | 37 | 1004.2 |
| 20260507181826 | 59 | 266 | 12.0 | 17.0 | 0.00 | 0.01 | 0.01 | 36 | 1004.3 |
| 20260507181322 | 59 | 270 | 7.0 | 10.0 | 0.00 | 0.01 | 0.01 | 39 | 1004.2 |
| 20260507180819 | 58 | 307 | 7.0 | 14.0 | 0.00 | 0.01 | 0.01 | 36 | 1004.1 |
| 20260507180316 | 58 | 287 | 12.0 | 14.0 | 0.00 | 0.01 | 0.01 | 37 | 1004.2 |
| 20260507175811 | 57 | 270 | 10.0 | 12.0 | 0.00 | 0.01 | 0.01 | 35 | 1004.2 |
| 20260507175309 | 57 | 271 | 13.0 | 19.0 | 0.00 | 0.01 | 0.01 | 37 | 1004.1 |
| 20260507174806 | 58 | 241 | 7.0 | 10.0 | 0.00 | 0.01 | 0.01 | 49 | 1004.3 |
| 20260507174304 | 56 | 256 | 9.0 | 12.0 | 0.00 | 0.01 | 0.01 | 50 | 1004.2 |
| 20260507173801 | 55 | 279 | 13.0 | 15.0 | 0.00 | 0.01 | 0.01 | 49 | 1004.4 |
| 20260507173258 | 57 | 267 | 9.0 | 14.0 | 0.00 | 0.01 | 0.01 | 49 | 1004.5 |
| 20260507172754 | 57 | 265 | 13.0 | 15.0 | 0.00 | 0.01 | 0.01 | 49 | 1004.5 |
| 20260507172251 | 56 | 306 | 5.0 | 14.0 | 0.00 | 0.01 | 0.01 | 54 | 1004.6 |
| 20260507171746 | 56 | 283 | 11.0 | 19.0 | 0.00 | 0.01 | 0.01 | 54 | 1004.2 |
| 20260507171244 | 56 | 277 | 7.0 | 12.0 | 0.00 | 0.01 | 0.01 | 56 | 1004.5 |
| 20260507170741 | 55 | 275 | 13.0 | 17.0 | 0.00 | 0.01 | 0.01 | 54 | 1004.4 |
| 20260507170237 | 55 | 271 | 11.0 | 21.0 | 0.00 | 0.01 | 0.01 | 54 | 1004.4 |
| 20260507165733 | 57 | 270 | 10.0 | 15.0 | 0.00 | 0.01 | 0.01 | 53 | 1004.4 |
| 20260507165229 | 57 | 255 | 9.0 | 10.0 | 0.00 | 0.01 | 0.01 | 52 | 1004.4 |
| 20260507164726 | 58 | 242 | 11.0 | 14.0 | 0.00 | 0.01 | 0.01 | 51 | 1004.4 |
| 20260507164223 | 56 | 275 | 7.0 | 7.0 | 0.00 | 0.01 | 0.01 | 53 | 1004.6 |
| 20260507163720 | 56 | 270 | 9.0 | 14.0 | 0.00 | 0.01 | 0.01 | 51 | 1004.5 |
| 20260507163218 | 56 | 274 | 7.0 | 9.0 | 0.00 | 0.01 | 0.01 | 52 | 1004.6 |
| 20260507162713 | 56 | 273 | 10.0 | 14.0 | 0.00 | 0.01 | 0.01 | 53 | 1004.6 |
| 20260507162210 | 56 | 255 | 8.0 | 10.0 | 0.00 | 0.01 | 0.01 | 56 | 1004.7 |
| 20260507161706 | 57 | 237 | 7.0 | 12.0 | 0.00 | 0.01 | 0.01 | 54 | 1004.7 |
| 20260507161203 | 57 | 306 | 5.0 | 9.0 | 0.00 | 0.01 | 0.01 | 59 | 1004.7 |
| 20260507160659 | 58 | 300 | 8.0 | 9.0 | 0.00 | 0.01 | 0.01 | 54 | 1004.8 |
| 20260507160156 | 57 | 257 | 5.0 | 9.0 | 0.00 | 0.01 | 0.01 | 56 | 1004.7 |
| 20260507155651 | 56 | 280 | 9.0 | 12.0 | 0.00 | 0.01 | 0.01 | 55 | 1004.9 |
| 20260507155142 | 57 | 288 | 5.0 | 7.0 | 0.00 | 0.01 | 0.01 | 55 | 1005.0 |
| 20260507154639 | 57 | 228 | 5.0 | 7.0 | 0.00 | 0.01 | 0.01 | 58 | 1005.0 |
| 20260507154137 | 57 | 219 | 6.0 | 10.0 | 0.00 | 0.01 | 0.01 | 55 | 1005.1 |
| 20260507153633 | 56 | 274 | 9.0 | 10.0 | 0.00 | 0.01 | 0.01 | 58 | 1005.1 |
| 20260507153129 | 55 | 288 | 5.0 | 9.0 | 0.00 | 0.01 | 0.01 | 60 | 1005.1 |
| 20260507152626 | 55 | 314 | 6.0 | 9.0 | 0.00 | 0.01 | 0.01 | 55 | 1005.2 |
| 20260507152122 | 56 | 247 | 5.0 | 10.0 | 0.00 | 0.01 | 0.01 | 54 | 1005.2 |
| 20260507151618 | 56 | 276 | 8.0 | 15.0 | 0.00 | 0.01 | 0.01 | 52 | 1005.3 |
| 20260507151115 | 57 | 277 | 6.0 | 9.0 | 0.00 | 0.01 | 0.01 | 52 | 1005.1 |
| 20260507150612 | 57 | 240 | 5.0 | 7.0 | 0.00 | 0.01 | 0.01 | 53 | 1005.1 |
| 20260507150108 | 57 | 261 | 5.0 | 10.0 | 0.00 | 0.01 | 0.01 | 52 | 1005.3 |
| 20260507145604 | 56 | 273 | 3.0 | 7.0 | 0.00 | 0.01 | 0.01 | 54 | 1005.1 |
| 20260507145102 | 56 | 270 | 7.0 | 14.0 | 0.00 | 0.01 | 0.01 | 53 | 1005.2 |
| 20260507144557 | 56 | 290 | 7.0 | 9.0 | 0.00 | 0.01 | 0.01 | 58 | 1005.3 |
| 20260507144056 | 57 | 335 | 5.0 | 7.0 | 0.00 | 0.01 | 0.01 | 54 | 1005.2 |
| 20260507143552 | 56 | 300 | 3.0 | 7.0 | 0.00 | 0.01 | 0.01 | 58 | 1005.1 |
| 20260507143050 | 55 | 288 | 4.0 | 9.0 | 0.00 | 0.01 | 0.01 | 57 | 1005.2 |
| 20260507142549 | 55 | 229 | 5.0 | 7.0 | 0.00 | 0.01 | 0.01 | 56 | 1005.2 |
| 20260507142047 | 55 | 279 | 5.0 | 5.0 | 0.00 | 0.01 | 0.01 | 61 | 1005.2 |
| 20260507141543 | 55 | 271 | 4.0 | 5.0 | 0.00 | 0.01 | 0.01 | 59 | 1005.6 |
| 20260507141040 | 55 | 318 | 6.0 | 9.0 | 0.00 | 0.01 | 0.01 | 57 | 1005.5 |
| 20260507140537 | 54 | 267 | 3.0 | 5.0 | 0.00 | 0.01 | 0.01 | 63 | 1005.4 |
| 20260507140034 | 54 | 326 | 5.0 | 7.0 | 0.00 | 0.01 | 0.01 | 62 | 1005.8 |
| 20260507135531 | 54 | 307 | 3.0 | 9.0 | 0.00 | 0.01 | 0.01 | 64 | 1005.6 |
| 20260507135028 | 53 | 293 | 2.0 | 3.0 | 0.00 | 0.01 | 0.01 | 72 | 1005.7 |
| 20260507134525 | 53 | 270 | 3.0 | 5.0 | 0.00 | 0.01 | 0.01 | 72 | 1005.8 |
| 20260507134020 | 53 | 245 | 3.0 | 5.0 | 0.00 | 0.01 | 0.01 | 71 | 1005.7 |
| 20260507133517 | 53 | 269 | 3.0 | 5.0 | 0.00 | 0.01 | 0.01 | 68 | 1005.7 |
| 20260507133015 | 52 | 332 | 2.0 | 5.0 | 0.00 | 0.01 | 0.01 | 70 | 1005.8 |
| 20260507132511 | 51 | 267 | 3.0 | 5.0 | 0.00 | 0.01 | 0.01 | 73 | 1005.8 |
| 20260507132007 | 51 | 286 | 7.0 | 9.0 | 0.00 | 0.01 | 0.01 | 70 | 1006.0 |
| 20260507131504 | 51 | 278 | 6.0 | 9.0 | 0.00 | 0.01 | 0.01 | 72 | 1005.9 |
| 20260507131002 | 51 | 260 | 4.0 | 7.0 | 0.00 | 0.01 | 0.01 | 76 | 1006.0 |
| 20260507130459 | 50 | 272 | 4.0 | 5.0 | 0.00 | 0.01 | 0.01 | 78 | 1005.9 |
| 20260507125957 | 51 | 268 | 4.0 | 5.0 | 0.00 | 0.01 | 0.01 | 78 | 1006.0 |
| 20260507125455 | 51 | 286 | 3.0 | 5.0 | 0.00 | 0.01 | 0.01 | 80 | 1006.0 |
| 20260507124952 | 51 | 289 | 2.0 | 3.0 | 0.00 | 0.01 | 0.01 | 79 | 1005.9 |
| 20260507124448 | 50 | 299 | 2.0 | 3.0 | 0.00 | 0.01 | 0.01 | 80 | 1005.9 |
| 20260507123946 | 51 | 13 | 2.0 | 2.0 | 0.00 | 0.01 | 0.01 | 77 | 1006.2 |
| 20260507123444 | 50 | 17 | 2.0 | 2.0 | 0.00 | 0.01 | 0.01 | 76 | 1005.9 |
| 20260507122940 | 50 | 10 | 0.0 | 2.0 | 0.00 | 0.01 | 0.01 | 76 | 1006.0 |
| 20260507122435 | 50 | 356 | 2.0 | 3.0 | 0.00 | 0.01 | 0.01 | 77 | 1006.2 |
| 20260507121931 | 49 | 334 | 3.0 | 3.0 | 0.00 | 0.01 | 0.01 | 76 | 1006.0 |
| 20260507121427 | 49 | 341 | 3.0 | 3.0 | 0.00 | 0.01 | 0.01 | 78 | 1006.2 |
| 20260507120924 | 49 | 11 | 1.0 | 3.0 | 0.00 | 0.01 | 0.01 | 78 | 1006.1 |
| 20260507120420 | 49 | 4 | 2.0 | 3.0 | 0.00 | 0.01 | 0.01 | 77 | 1006.2 |
| 20260507115917 | 49 | 4 | 3.0 | 3.0 | 0.00 | 0.01 | 0.01 | 78 | 1006.3 |
| 20260507115413 | 49 | 5 | 2.0 | 3.0 | 0.00 | 0.01 | 0.01 | 78 | 1006.2 |
| 20260507114908 | 48 | 4 | 2.0 | 2.0 | 0.00 | 0.01 | 0.01 | 78 | 1006.0 |
| 20260507114406 | 48 | 329 | 3.0 | 3.0 | 0.00 | 0.01 | 0.01 | 79 | 1006.3 |
| 20260507113903 | 47 | 331 | 3.0 | 3.0 | 0.00 | 0.01 | 0.01 | 81 | 1006.1 |
| 20260507113400 | 47 | 322 | 2.0 | 3.0 | 0.00 | 0.01 | 0.01 | 81 | 1006.0 |
| 20260507112857 | 46 | 321 | 1.0 | 3.0 | 0.00 | 0.01 | 0.01 | 83 | 1006.1 |
| 20260507112354 | 46 | 321 | 2.0 | 2.0 | 0.00 | 0.01 | 0.01 | 84 | 1006.2 |
| 20260507111852 | 45 | 321 | 1.0 | 2.0 | 0.00 | 0.01 | 0.01 | 89 | 1006.0 |
| 20260507111348 | 45 | 321 | 0.0 | 0.0 | 0.00 | 0.01 | 0.01 | 93 | 1005.9 |
| 20260507110844 | 44 | 321 | 1.0 | 2.0 | 0.00 | 0.01 | 0.01 | 94 | 1006.3 |
| 20260507110341 | 44 | 321 | 1.0 | 2.0 | 0.00 | 0.01 | 0.01 | 95 | 1006.2 |
| 20260507105838 | 44 | 320 | 2.0 | 2.0 | 0.00 | 0.01 | 0.01 | 96 | 1006.5 |
| 20260507105334 | 44 | 320 | 2.0 | 2.0 | 0.00 | 0.01 | 0.01 | 96 | 1006.5 |
| 20260507104831 | 44 | 320 | 1.0 | 2.0 | 0.00 | 0.01 | 0.01 | 96 | 1006.4 |
| 20260507104328 | 44 | 319 | 0.0 | 2.0 | 0.00 | 0.01 | 0.01 | 96 | 1006.7 |
| 20260507103824 | 44 | 319 | 2.0 | 2.0 | 0.00 | 0.01 | 0.01 | 94 | 1006.5 |
| 20260507103320 | 43 | 319 | 2.0 | 2.0 | 0.00 | 0.01 | 0.01 | 94 | 1006.2 |
| 20260507102817 | 44 | 319 | 2.0 | 2.0 | 0.00 | 0.01 | 0.01 | 95 | 1006.2 |
| 20260507102314 | 44 | 320 | 1.0 | 2.0 | 0.00 | 0.01 | 0.01 | 96 | 1006.2 |
| 20260507101810 | 44 | 319 | 1.0 | 2.0 | 0.00 | 0.01 | 0.01 | 94 | 1006.5 |
| 20260507101310 | 44 | 319 | 2.0 | 2.0 | 0.00 | 0.01 | 0.01 | 91 | 1006.5 |
| 20260507100808 | 44 | 316 | 2.0 | 3.0 | 0.00 | 0.01 | 0.01 | 91 | 1006.4 |
| 20260507100306 | 44 | 319 | 2.0 | 3.0 | 0.00 | 0.01 | 0.01 | 91 | 1006.4 |
| 20260507095804 | 44 | 317 | 2.0 | 3.0 | 0.00 | 0.01 | 0.01 | 92 | 1006.1 |
| 20260507095300 | 43 | 327 | 2.0 | 3.0 | 0.00 | 0.01 | 0.01 | 94 | 1006.4 |
| 20260507094757 | 43 | 328 | 2.0 | 3.0 | 0.00 | 0.01 | 0.01 | 96 | 1006.2 |
| 20260507094254 | 44 | 332 | 2.0 | 3.0 | 0.00 | 0.01 | 0.01 | 96 | 1006.1 |
| 20260507093750 | 44 | 347 | 2.0 | 3.0 | 0.00 | 0.01 | 0.01 | 96 | 1005.8 |
| 20260507093249 | 44 | 347 | 2.0 | 2.0 | 0.00 | 0.01 | 0.01 | 95 | 1005.6 |
| 20260507092746 | 44 | 18 | 2.0 | 3.0 | 0.00 | 0.01 | 0.01 | 94 | 1005.5 |
| 20260507092242 | 44 | 23 | 2.0 | 2.0 | 0.00 | 0.01 | 0.01 | 94 | 1005.4 |
| 20260507091739 | 44 | 23 | 2.0 | 2.0 | 0.00 | 0.01 | 0.01 | 94 | 1005.6 |
| 20260507091235 | 44 | 20 | 0.0 | 2.0 | 0.00 | 0.01 | 0.01 | 95 | 1005.7 |
| 20260507090731 | 44 | 20 | 0.0 | 2.0 | 0.00 | 0.01 | 0.01 | 95 | 1005.8 |
| 20260507090228 | 44 | 20 | 2.0 | 2.0 | 0.00 | 0.01 | 0.01 | 95 | 1005.8 |
| 20260507085725 | 44 | 21 | 2.0 | 2.0 | 0.00 | 0.01 | 0.01 | 95 | 1005.7 |
| 20260507085222 | 44 | 24 | 2.0 | 3.0 | 0.00 | 0.01 | 0.01 | 96 | 1006.0 |
| 20260507084719 | 44 | 43 | 0.0 | 2.0 | 0.00 | 0.01 | 0.01 | 96 | 1005.5 |
| 20260507084215 | 45 | 34 | 2.0 | 2.0 | 0.00 | 0.01 | 0.01 | 96 | 1005.7 |
| 20260507083713 | 44 | 347 | 0.0 | 2.0 | 0.00 | 0.01 | 0.01 | 96 | 1006.1 |
| 20260507083209 | 45 | 346 | 1.0 | 3.0 | 0.00 | 0.01 | 0.01 | 96 | 1005.9 |
| 20260507082705 | 45 | 340 | 2.0 | 3.0 | 0.00 | 0.01 | 0.01 | 96 | 1005.8 |
| 20260507082156 | 45 | 328 | 2.0 | 3.0 | 0.00 | 0.01 | 0.01 | 96 | 1005.7 |
| 20260507081653 | 45 | 298 | 1.0 | 2.0 | 0.00 | 0.01 | 0.01 | 96 | 1005.8 |
| 20260507081149 | 45 | 332 | 2.0 | 3.0 | 0.00 | 0.01 | 0.01 | 95 | 1005.7 |
| 20260507080646 | 45 | 349 | 2.0 | 3.0 | 0.00 | 0.01 | 0.01 | 96 | 1005.6 |
| 20260507080142 | 45 | 349 | 2.0 | 3.0 | 0.00 | 0.01 | 0.01 | 95 | 1005.3 |
| 20260507075637 | 45 | 355 | 1.0 | 2.0 | 0.00 | 0.01 | 0.01 | 95 | 1005.6 |
| 20260507075133 | 45 | 339 | 0.0 | 2.0 | 0.00 | 0.01 | 0.01 | 95 | 1005.5 |
| 20260507074630 | 46 | 351 | 3.0 | 3.0 | 0.00 | 0.01 | 0.01 | 95 | 1005.3 |
| 20260507074129 | 46 | 319 | 3.0 | 5.0 | 0.00 | 0.01 | 0.01 | 94 | 1005.5 |
| 20260507073625 | 46 | 314 | 2.0 | 3.0 | 0.00 | 0.01 | 0.01 | 94 | 1005.3 |
| 20260507073121 | 46 | 316 | 2.0 | 5.0 | 0.00 | 0.01 | 0.01 | 94 | 1005.5 |
| 20260507072619 | 46 | 329 | 3.0 | 5.0 | 0.00 | 0.01 | 0.01 | 93 | 1005.5 |
| 20260507072116 | 46 | 333 | 4.0 | 7.0 | 0.00 | 0.01 | 0.01 | 94 | 1005.2 |
| 20260507071613 | 46 | 330 | 2.0 | 3.0 | 0.00 | 0.01 | 0.01 | 94 | 1005.5 |
| 20260507071109 | 47 | 305 | 5.0 | 7.0 | 0.00 | 0.01 | 0.01 | 94 | 1005.4 |
| 20260507070606 | 47 | 281 | 4.0 | 5.0 | 0.00 | 0.01 | 0.01 | 95 | 1005.3 |
| 20260507070058 | 47 | 312 | 3.0 | 5.0 | 0.00 | 0.01 | 0.01 | 96 | 1005.6 |
| 20260507065554 | 47 | 307 | 5.0 | 7.0 | 0.00 | 0.01 | 0.01 | 96 | 1005.3 |
| 20260507065051 | 47 | 312 | 4.0 | 5.0 | 0.00 | 0.01 | 0.01 | 98 | 1005.1 |
| 20260507064549 | 47 | 326 | 1.0 | 3.0 | 0.00 | 0.01 | 0.01 | 98 | 1005.0 |
| 20260507064048 | 47 | 318 | 2.0 | 3.0 | 0.00 | 0.01 | 0.01 | 98 | 1005.1 |
| 20260507063544 | 48 | 316 | 3.0 | 3.0 | 0.00 | 0.01 | 0.01 | 98 | 1004.8 |
| 20260507063042 | 48 | 341 | 2.0 | 2.0 | 0.00 | 0.01 | 0.01 | 98 | 1005.0 |
| 20260507062538 | 48 | 341 | 0.0 | 0.0 | 0.00 | 0.01 | 0.01 | 98 | 1004.8 |
| 20260507062036 | 48 | 341 | 0.0 | 0.0 | 0.00 | 0.01 | 0.01 | 98 | 1004.8 |
| 20260507061533 | 48 | 341 | 0.0 | 2.0 | 0.00 | 0.01 | 0.01 | 98 | 1004.8 |
| 20260507061031 | 48 | 341 | 2.0 | 3.0 | 0.00 | 0.01 | 0.01 | 98 | 1004.7 |
| 20260507060529 | 48 | 343 | 1.0 | 2.0 | 0.00 | 0.01 | 0.01 | 98 | 1004.7 |
| 20260507060025 | 48 | 344 | 1.0 | 2.0 | 0.00 | 0.01 | 0.01 | 98 | 1004.7 |
| 20260507055520 | 48 | 344 | 0.0 | 2.0 | 0.00 | 0.01 | 0.01 | 98 | 1004.6 |
| 20260507055016 | 47 | 347 | 2.0 | 2.0 | 0.00 | 0.01 | 0.01 | 98 | 1004.4 |
| 20260507054513 | 48 | 348 | 1.0 | 2.0 | 0.00 | 0.01 | 0.01 | 98 | 1004.5 |
| 20260507054010 | 48 | 348 | 1.0 | 2.0 | 0.00 | 0.01 | 0.01 | 98 | 1004.6 |
| 20260507053508 | 48 | 358 | 3.0 | 3.0 | 0.00 | 0.01 | 0.01 | 98 | 1004.3 |
| 20260507053006 | 48 | 351 | 2.0 | 3.0 | 0.00 | 0.01 | 0.01 | 98 | 1004.4 |
| 20260507052504 | 48 | 8 | 2.0 | 3.0 | 0.00 | 0.01 | 0.01 | 98 | 1004.4 |
| 20260507052000 | 48 | 348 | 2.0 | 3.0 | 0.00 | 0.01 | 0.01 | 98 | 1004.7 |
| 20260507051458 | 48 | 350 | 0.0 | 2.0 | 0.00 | 0.01 | 0.01 | 98 | 1004.1 |
| 20260507050954 | 48 | 348 | 0.0 | 0.0 | 0.00 | 0.01 | 0.01 | 98 | 1004.3 |
| 20260507050450 | 48 | 2 | 0.0 | 2.0 | 0.00 | 0.01 | 0.01 | 98 | 1004.4 |
| 20260507045948 | 48 | 43 | 2.0 | 5.0 | 0.00 | 0.01 | 0.01 | 98 | 1004.2 |
| 20260507045444 | 48 | 330 | 4.0 | 5.0 | 0.00 | 0.01 | 0.01 | 98 | 1004.4 |
| 20260507044942 | 48 | 314 | 4.0 | 5.0 | 0.00 | 0.01 | 0.01 | 98 | 1004.3 |
| 20260507044438 | 49 | 40 | 1.0 | 5.0 | 0.00 | 0.01 | 0.01 | 98 | 1004.3 |
| 20260507043934 | 49 | 20 | 1.0 | 3.0 | 0.00 | 0.01 | 0.01 | 98 | 1004.5 |
| 20260507043431 | 50 | 323 | 4.0 | 5.0 | 0.07 | 0.01 | 0.01 | 98 | 1004.3 |
| 20260507042927 | 50 | 5 | 2.0 | 3.0 | 0.07 | 0.01 | 0.01 | 98 | 1004.6 |
| 20260507042424 | 50 | 352 | 3.0 | 7.0 | 0.00 | 0.00 | 0.00 | 98 | 1004.2 |
| 20260507041919 | 50 | 329 | 7.0 | 12.0 | 0.00 | 0.00 | 0.00 | 98 | 1004.1 |
| 20260507041416 | 51 | 324 | 4.0 | 9.0 | 0.00 | 0.00 | 0.00 | 98 | 1004.5 |
| 20260507040914 | 52 | 71 | 1.0 | 5.0 | 0.05 | 0.00 | 0.00 | 98 | 1004.3 |
| 20260507040409 | 52 | 27 | 0.0 | 2.0 | 0.05 | 0.00 | 0.00 | 98 | 1004.5 |
| 20260507035905 | 52 | 22 | 0.0 | 2.0 | 0.07 | 0.50 | 0.50 | 98 | 1004.4 |
| 20260507035402 | 52 | 43 | 0.0 | 3.0 | 0.31 | 0.50 | 0.50 | 98 | 1004.3 |
| 20260507034859 | 53 | 334 | 3.0 | 7.0 | 0.19 | 0.48 | 0.48 | 98 | 1004.3 |
| 20260507034356 | 53 | 350 | 2.0 | 3.0 | 0.00 | 0.45 | 0.45 | 98 | 1004.2 |
| 20260507033854 | 53 | 345 | 5.0 | 7.0 | 0.00 | 0.45 | 0.45 | 98 | 1003.9 |
| 20260507033352 | 55 | 305 | 4.0 | 5.0 | 0.07 | 0.45 | 0.45 | 98 | 1003.7 |
| 20260507032848 | 55 | 309 | 2.0 | 5.0 | 0.07 | 0.45 | 0.45 | 98 | 1003.4 |
| 20260507032345 | 55 | 301 | 3.0 | 3.0 | 0.00 | 0.44 | 0.44 | 98 | 1003.5 |
| 20260507031841 | 55 | 319 | 3.0 | 3.0 | 0.00 | 0.44 | 0.44 | 98 | 1003.5 |
| 20260507031338 | 55 | 133 | 2.0 | 2.0 | 0.00 | 0.44 | 0.44 | 98 | 1003.3 |
| 20260507030834 | 55 | 134 | 0.0 | 2.0 | 0.00 | 0.44 | 0.44 | 98 | 1003.4 |
| 20260507030332 | 55 | 133 | 0.0 | 2.0 | 0.05 | 0.44 | 0.44 | 98 | 1003.4 |
| 20260507025829 | 54 | 131 | 1.0 | 2.0 | 0.00 | 0.43 | 0.43 | 98 | 1003.4 |
| 20260507025326 | 54 | 131 | 0.0 | 2.0 | 0.00 | 0.43 | 0.43 | 98 | 1003.4 |
| 20260507024824 | 54 | 106 | 0.0 | 0.0 | 0.00 | 0.43 | 0.43 | 98 | 1003.3 |
| 20260507024321 | 53 | 106 | 0.0 | 0.0 | 0.00 | 0.43 | 0.43 | 98 | 1003.3 |
| 20260507023817 | 53 | 106 | 0.0 | 0.0 | 0.00 | 0.43 | 0.43 | 98 | 1003.4 |
| 20260507023313 | 53 | 106 | 0.0 | 0.0 | 0.00 | 0.43 | 0.43 | 98 | 1003.5 |
| 20260507022811 | 53 | 106 | 0.0 | 0.0 | 0.00 | 0.43 | 0.43 | 98 | 1003.4 |
| 20260507022307 | 52 | 106 | 0.0 | 0.0 | 0.00 | 0.43 | 0.43 | 98 | 1003.4 |
| 20260507021803 | 53 | 106 | 0.0 | 2.0 | 0.00 | 0.43 | 0.43 | 98 | 1003.4 |
| 20260507021259 | 53 | 105 | 0.0 | 2.0 | 0.00 | 0.43 | 0.43 | 98 | 1003.4 |
| 20260507020757 | 53 | 105 | 0.0 | 2.0 | 0.00 | 0.43 | 0.43 | 98 | 1003.3 |
| 20260507020253 | 53 | 105 | 0.0 | 2.0 | 0.00 | 0.43 | 0.43 | 98 | 1003.4 |
| 20260507015751 | 53 | 105 | 0.0 | 2.0 | 0.00 | 0.43 | 0.43 | 98 | 1003.3 |
| 20260507015248 | 53 | 105 | 0.0 | 2.0 | 0.00 | 0.43 | 0.43 | 98 | 1003.3 |
| 20260507014745 | 53 | 105 | 2.0 | 2.0 | 0.00 | 0.43 | 0.43 | 98 | 1003.5 |
| 20260507014241 | 53 | 105 | 1.0 | 2.0 | 0.00 | 0.43 | 0.43 | 98 | 1003.7 |
| 20260507013738 | 53 | 106 | 1.0 | 2.0 | 0.00 | 0.43 | 0.43 | 98 | 1003.5 |
| 20260507013235 | 53 | 105 | 1.0 | 2.0 | 0.00 | 0.43 | 0.43 | 98 | 1003.7 |
| 20260507012732 | 53 | 105 | 1.0 | 2.0 | 0.00 | 0.43 | 0.43 | 98 | 1003.7 |
| 20260507012228 | 53 | 106 | 0.0 | 2.0 | 0.00 | 0.43 | 0.43 | 98 | 1003.7 |
| 20260507011726 | 53 | 106 | 0.0 | 2.0 | 0.00 | 0.43 | 0.43 | 98 | 1003.8 |
| 20260507011222 | 53 | 106 | 2.0 | 2.0 | 0.00 | 0.43 | 0.43 | 98 | 1003.8 |
| 20260507010721 | 53 | 106 | 2.0 | 2.0 | 0.00 | 0.43 | 0.43 | 98 | 1003.6 |
| 20260507010218 | 53 | 106 | 0.0 | 2.0 | 0.00 | 0.43 | 0.43 | 98 | 1003.6 |
| 20260507005716 | 53 | 106 | 1.0 | 3.0 | 0.00 | 0.43 | 0.43 | 98 | 1003.7 |
| 20260507005212 | 53 | 105 | 1.0 | 2.0 | 0.00 | 0.43 | 0.43 | 98 | 1003.8 |
| 20260507004708 | 53 | 105 | 0.0 | 2.0 | 0.00 | 0.43 | 0.43 | 98 | 1003.9 |